Weather History for Sheridan, WY

Change the Weather History Date:

Friday, August 2, 2013

  Actual Average Record
Temperature  
Mean Temperature 69 °F 72 °F  
Max Temperature 83 °F 89 °F 100 °F (2001)
Min Temperature 55 °F 54 °F 43 °F (1917)
Degree Days  
Heating Degree Days 0 0  
Month to date heating degree days 0 0  
Since 1 June heating degree days 121 175  
Since 1 July heating degree days 1 26  
Cooling Degree Days 4 7  
Month to date cooling degree days 15 14  
Year to date cooling degree days 293 246  
Since 1 June cooling degree days 285 242  
Growing Degree Days 18 (Base 50)    
Moisture  
Dew Point 54 °F    
Average Humidity 61    
Maximum Humidity 86    
Minimum Humidity 36    
Precipitation  
Precipitation 0.00 in 0.02 in 0.80 in (1953)
Month to date precipitation 0.01 0.05  
Year to date precipitation 9.95 9.38  
Sea Level Pressure  
Sea Level Pressure 29.92 in    
Wind  
Wind Speed 6 mph (North)    
Max Wind Speed 13 mph    
Max Gust Speed 15 mph    
Visibility 10 miles    
Events Thunderstorm    
T = Trace of Precipitation, MM = Missing Value Source: NWS Daily Summary

Daily Weather History Graph

Daily Weather History Graph

Search for Another Location

Airport:

Trip Planner

Search our weather history database for the weather conditions in past years. The results will help you decide how hot, cold, wet, or windy it might be!

Date:

Astronomy

Aug. 02, 2013 Rise Set
Actual Time 5:55 AM MDT 8:32 PM MDT
Civil Twilight 5:22 AM MDT 9:05 PM MDT
Nautical Twilight 4:40 AM MDT 9:47 PM MDT
Astronomical Twilight 3:51 AM MDT 10:34 PM MDT
Moon 2:16 AM MDT (8/2) 5:33 PM MDT (8/2)
Length of Visible Light 15h 43m
Length of Day
14h 36m
Waning Crescent, 15% of the Moon is Illuminated
Aug 2
Waning Crescent
Aug 6
New
Aug 14
First Quarter
Aug 20
Full
Aug 28
Last Quarter

Hourly Weather History & Observations

Time (MDT) Temp. Heat Index Dew Point Humidity Pressure Visibility Wind Dir Wind Speed Gust Speed Precip Events Conditions
12:53 AM 66.9 °F - 52.0 °F 59% 29.79 in 10.0 mi NNW 10.4 mph - N/A   Scattered Clouds
1:53 AM 63.0 °F - 53.1 °F 70% 29.82 in 10.0 mi North 10.4 mph - N/A   Clear
2:53 AM 64.0 °F - 53.1 °F 67% 29.84 in 10.0 mi Calm Calm - N/A   Overcast
3:49 AM 62.6 °F - 53.6 °F 72% 29.98 in 10.0 mi NNW 8.1 mph - N/A   Overcast
3:53 AM 62.1 °F - 53.1 °F 72% 29.86 in 10.0 mi NNW 6.9 mph - N/A   Overcast
4:03 AM 62.6 °F - 53.6 °F 72% 29.97 in 10.0 mi North 5.8 mph - N/A   Overcast
4:27 AM 62.6 °F - 53.6 °F 72% 29.97 in 10.0 mi NE 5.8 mph - N/A Thunderstorm Mostly Cloudy
4:45 AM 60.8 °F - 53.6 °F 77% 29.98 in 10.0 mi NNE 4.6 mph - N/A Thunderstorm Partly Cloudy
4:53 AM 61.0 °F - 53.1 °F 75% 29.88 in 10.0 mi NNW 8.1 mph - N/A Thunderstorm Scattered Clouds
5:06 AM 60.8 °F - 53.6 °F 77% 29.99 in 10.0 mi NNW 8.1 mph - N/A   Mostly Cloudy
5:53 AM 55.9 °F - 53.1 °F 90% 29.86 in 10.0 mi South 6.9 mph - N/A   Clear
6:53 AM 57.9 °F - 53.1 °F 84% 29.85 in 10.0 mi SSE 4.6 mph - N/A   Scattered Clouds
7:53 AM 62.1 °F - 54.0 °F 75% 29.88 in 10.0 mi NNE 9.2 mph - N/A   Mostly Cloudy
8:53 AM 62.1 °F - 53.1 °F 72% 29.90 in 10.0 mi East 6.9 mph - N/A   Overcast
9:53 AM 63.0 °F - 54.0 °F 72% 29.89 in 10.0 mi East 9.2 mph - N/A   Overcast
10:53 AM 64.9 °F - 54.0 °F 68% 29.93 in 10.0 mi NNE 3.5 mph - N/A   Overcast
11:53 AM 66.9 °F - 54.0 °F 63% 29.93 in 10.0 mi NW 6.9 mph - N/A   Overcast
12:42 PM 71.6 °F - 53.6 °F 53% 30.02 in 10.0 mi Calm Calm - N/A   Scattered Clouds
12:53 PM 71.1 °F - 55.0 °F 57% 29.92 in 10.0 mi Variable 3.5 mph - N/A   Clear
1:53 PM 73.9 °F - 55.0 °F 52% 29.92 in 10.0 mi WNW 4.6 mph - N/A   Clear
2:53 PM 78.1 °F - 55.0 °F 45% 29.90 in 10.0 mi Calm Calm - N/A   Clear
3:53 PM 81.0 °F - 52.0 °F 36% 29.88 in 10.0 mi NNW 5.8 mph - N/A   Clear
4:53 PM 81.0 °F - 52.0 °F 36% 29.88 in 10.0 mi WNW 4.6 mph - N/A   Clear
5:53 PM 82.0 °F 81.2 °F 53.1 °F 37% 29.88 in 10.0 mi North 5.8 mph - N/A   Clear
6:53 PM 79.0 °F - 52.0 °F 39% 29.89 in 10.0 mi North 8.1 mph - N/A   Clear
7:53 PM 72.0 °F - 52.0 °F 49% 29.92 in 10.0 mi North 5.8 mph - N/A   Clear
8:53 PM 73.9 °F - 54.0 °F 50% 29.95 in 10.0 mi North 8.1 mph - N/A   Overcast
9:53 PM 71.1 °F - 55.0 °F 57% 29.99 in 10.0 mi North 5.8 mph - N/A   Overcast
10:53 PM 68.0 °F - 55.0 °F 63% 30.00 in 10.0 mi North 3.5 mph - N/A   Overcast
11:53 PM 63.0 °F - 55.0 °F 75% 30.01 in 10.0 mi NW 6.9 mph - N/A   Partly Cloudy